Mountain Home, AR

2:16 PM CST on December 15, 2017 (GMT -0600)
Baxter County Regional

Weather History for KBPK - October, 2012

Change the Weather History Date:

Saturday, October 20, 2012

  Actual Average (KFLP) Record (KFLP)
Temperature  
Mean Temperature 56 °F -  
Max Temperature 75 °F 69 °F 87 °F (2003)
Min Temperature 39 °F 46 °F 30 °F (2006)
Degree Days  
Heating Degree Days 9    
Growing Degree Days 6 (Base 50)    
Moisture  
Dew Point 41 °F    
Average Humidity 64    
Maximum Humidity 97    
Minimum Humidity 32    
Precipitation  
Precipitation 0.00 in - - ()
Sea Level Pressure  
Sea Level Pressure 29.86 in    
Wind  
Wind Speed 3 mph (SE)    
Max Wind Speed 9 mph    
Max Gust Speed -    
Visibility 10 miles    
Events      
Averages and records for this station are not official NWS values.
T = Trace of Precipitation, MM = Missing Value Source: NWS Daily Summary

Daily Weather History Graph

Daily Weather History Graph

Search for Another Location

Airport or City:

Trip Planner

Search our weather history database for the weather conditions in past years. The results will help you decide how hot, cold, wet, or windy it might be!

Date:

Astronomy

Oct. 20, 2012 Rise Set
Actual Time 7:21 AM CDT 6:26 PM CDT
Civil Twilight 6:55 AM CDT 6:52 PM CDT
Nautical Twilight 6:25 AM CDT 7:22 PM CDT
Astronomical Twilight 5:55 AM CDT 7:52 PM CDT
Moon 12:53 PM CDT (10/20) 11:17 PM CDT (10/20)
Length of Visible Light 11h 56m
Length of Day
11h 04m
Waxing Crescent, 34% of the Moon is Illuminated
Oct 20
Waxing Crescent
Oct 21
First Quarter
Oct 29
Full
Nov 6
Last Quarter
Nov 13
New

Hourly Weather History & Observations

Time (CDT) Temp. Windchill Dew Point Humidity Pressure Visibility Wind Dir Wind Speed Gust Speed Precip Events Conditions
12:53 AM 45.0 °F 43.5 °F 39.9 °F 82% 29.86 in 10.0 mi SSW 3.5 mph - N/A   Clear
1:53 AM 43.0 °F - 39.0 °F 86% 29.87 in 10.0 mi Calm Calm - N/A   Clear
2:53 AM 41.0 °F - 39.0 °F 93% 29.87 in 10.0 mi Calm Calm - N/A   Clear
3:53 AM 39.9 °F - 37.9 °F 93% 29.86 in 10.0 mi Calm Calm - N/A   Clear
4:53 AM 39.9 °F - 37.9 °F 93% 29.87 in 10.0 mi Calm Calm - N/A   Clear
5:53 AM 39.9 °F 37.8 °F 37.9 °F 93% 29.88 in 10.0 mi South 3.5 mph - N/A   Clear
6:53 AM 39.9 °F - 37.0 °F 89% 29.89 in 9.0 mi Calm Calm - N/A   Clear
7:53 AM 39.9 °F - 39.0 °F 97% 29.91 in 8.0 mi Calm Calm - N/A   Clear
8:53 AM 46.0 °F - 42.1 °F 86% 29.91 in 9.0 mi Calm Calm - N/A   Clear
9:53 AM 51.1 °F - 42.1 °F 71% 29.93 in 10.0 mi ESE 3.5 mph - N/A   Clear
10:53 AM 57.9 °F - 43.0 °F 58% 29.92 in 10.0 mi SE 3.5 mph - N/A   Clear
11:53 AM 63.0 °F - 39.9 °F 43% 29.90 in 10.0 mi Variable 3.5 mph - N/A   Clear
1:53 PM 70.0 °F - 39.0 °F 32% 29.85 in 10.0 mi SSE 5.8 mph - N/A   Clear
2:53 PM 72.0 °F - 42.1 °F 34% 29.83 in 10.0 mi ESE 6.9 mph - N/A   Clear
3:53 PM 73.9 °F - 43.0 °F 33% 29.81 in 10.0 mi Variable 4.6 mph - N/A   Clear
4:53 PM 73.0 °F - 42.1 °F 33% 29.81 in 10.0 mi ESE 9.2 mph - N/A   Clear
5:53 PM 70.0 °F - 42.1 °F 36% 29.81 in 10.0 mi ESE 5.8 mph - N/A   Clear
6:53 PM 64.9 °F - 43.0 °F 45% 29.82 in 10.0 mi ESE 5.8 mph - N/A   Clear
7:53 PM 63.0 °F - 43.0 °F 48% 29.83 in 10.0 mi SE 4.6 mph - N/A   Clear
8:53 PM 60.1 °F - 43.0 °F 53% 29.84 in 10.0 mi SSE 5.8 mph - N/A   Clear
9:53 PM 59.0 °F - 44.1 °F 58% 29.85 in 10.0 mi SSE 4.6 mph - N/A   Clear
10:53 PM 57.9 °F - 44.1 °F 60% 29.86 in 10.0 mi Calm Calm - N/A   Clear
11:53 PM 55.9 °F - 44.1 °F 64% 29.86 in 10.0 mi Calm Calm - N/A   Clear